Location: Baili�vre
(50.0696°N, 4.2409°E)
Time: 15:44:03
(UTC+00:00)

USA 234 - Pass Details

Date: 08 August 2020
Orbit: 1100 x 1108 km, 123.0° (Epoch: 17 September)

Event Time Altitude Azimuth Distance (km) Brightness Sun altitude
Exits shadow 20:18:43 11° 118° (ESE) 2,877 4.8 -9.6°
Maximum altitude 20:25:04 88° 30° (NNE) 1,110 3.3 -10.4°
Drops below altitude 10° 20:31:39 10° 302° (WNW) 2,971 7.0 -11.2°
Sets 20:34:08 0° 302° (WNW) 3,932 8.1 -11.5°
